TimeEDT,TemperatureF,Dew PointF,Humidity,Sea Level PressureIn,VisibilityMPH,Wind Direction,Wind SpeedMPH,Gust SpeedMPH,PrecipitationIn,Events,Conditions,WindDirDegrees,DateUTC
12:51 AM,41.0,24.1,51,29.86,10.0,West,5.8,-,0.00,,Overcast,270,2012-11-02 04:51:00
1:51 AM,39.9,24.1,53,29.84,10.0,West,8.1,-,0.00,,Overcast,260,2012-11-02 05:51:00
2:51 AM,39.9,24.1,53,29.82,10.0,WSW,10.4,-,N/A,,Overcast,250,2012-11-02 06:51:00
3:51 AM,39.0,26.1,60,29.83,9.0,West,11.5,20.7,0.00,Rain,Light Rain,280,2012-11-02 07:51:00
4:51 AM,39.0,26.1,60,29.82,10.0,WSW,11.5,-,0.00,,Overcast,250,2012-11-02 08:51:00
5:51 AM,39.0,26.1,60,29.82,10.0,WSW,9.2,-,N/A,,Overcast,250,2012-11-02 09:51:00
6:51 AM,39.0,25.0,57,29.82,10.0,Variable,6.9,16.1,N/A,,Overcast,0,2012-11-02 10:51:00
7:51 AM,37.9,25.0,60,29.83,10.0,WSW,9.2,-,N/A,,Overcast,250,2012-11-02 11:51:00
8:51 AM,37.9,25.0,60,29.86,10.0,West,8.1,-,N/A,,Overcast,270,2012-11-02 12:51:00
9:51 AM,37.9,26.1,62,29.88,10.0,West,8.1,-,N/A,,Overcast,280,2012-11-02 13:51:00
10:51 AM,37.9,27.0,65,29.90,10.0,WNW,8.1,-,N/A,,Scattered Clouds,300,2012-11-02 14:51:00
11:51 AM,39.9,26.1,58,29.91,10.0,West,10.4,-,0.01,,Scattered Clouds,280,2012-11-02 15:51:00
12:51 PM,41.0,26.1,55,29.91,10.0,NW,6.9,17.3,N/A,,Mostly Cloudy,320,2012-11-02 16:51:00
1:51 PM,39.9,26.1,58,29.91,10.0,NW,11.5,17.3,N/A,,Mostly Cloudy,320,2012-11-02 17:51:00
2:51 PM,42.1,26.1,53,29.91,10.0,WNW,13.8,26.5,N/A,,Overcast,290,2012-11-02 18:51:00
3:51 PM,41.0,26.1,55,29.93,10.0,WNW,9.2,-,N/A,,Overcast,300,2012-11-02 19:51:00
4:51 PM,41.0,26.1,55,29.95,10.0,NNW,11.5,-,N/A,,Overcast,330,2012-11-02 20:51:00
5:51 PM,39.9,26.1,58,29.97,10.0,NNW,6.9,-,N/A,,Overcast,340,2012-11-02 21:51:00
6:51 PM,39.9,26.1,58,30.00,10.0,NW,9.2,-,N/A,,Overcast,310,2012-11-02 22:51:00
7:51 PM,37.9,26.1,62,30.02,10.0,NNW,3.5,17.3,N/A,,Overcast,340,2012-11-02 23:51:00
8:51 PM,37.9,26.1,62,30.04,10.0,NW,6.9,-,N/A,,Overcast,320,2012-11-03 00:51:00
9:51 PM,37.0,26.1,65,30.04,10.0,WNW,8.1,-,N/A,,Overcast,300,2012-11-03 01:51:00
10:51 PM,37.0,26.1,65,30.04,10.0,WNW,10.4,18.4,N/A,,Overcast,300,2012-11-03 02:51:00
11:32 PM,37.4,26.6,65,29.99,10.0,WNW,8.1,-,N/A,,Overcast,290,2012-11-03 03:32:00
11:51 PM,37.0,26.1,65,30.04,10.0,WNW,8.1,-,N/A,,Overcast,290,2012-11-03 03:51:00